#timestamp,LO_Frequency,Hit 
1500404415.2,286047052.9,N
1500404435.0,286047052.0,N
1500404435.9,286047052.0,N
1500404455.7,286047051.2,N
1500404475.6,286047053.3,N
1500404495.4,286047053.6,N
1500404515.2,286047054.2,N
1500404535.1,286047054.1,N
1500404536.0,286047054.1,N
1500404555.8,286047052.7,N
1500404575.6,286047055.0,N
1500404595.5,286047054.5,N
1500404615.3,286047054.2,N
1500404635.1,286047054.8,N
1500404655.9,286047056.4,N
1500404675.7,286047054.9,N
1500404695.5,286047055.0,N
1500404715.4,286047055.1,N
1500404735.2,286047054.3,N
1500404755.0,286047054.6,N
1500404755.9,286047054.6,N
1500404775.8,286047055.1,N
1500404795.6,286047054.4,N
1500404815.4,286047057.0,N
1500404835.3,286047058.7,N
1500404855.1,286047056.5,N
1500404856.0,286047056.5,N
1500404875.8,286047055.9,N
1500404895.7,286047058.0,N
1500404915.5,286047059.9,N
1500404935.3,286047058.0,N
1500404955.1,286047060.2,N
1500404975.9,286047059.9,N
1500404995.7,286047060.1,N
1500405015.5,286047058.6,N
1500405035.4,286047057.5,N
1500405055.2,286047058.0,N
1500405075.0,286047055.8,N
1500405075.9,286047055.8,N
1500405095.8,286047056.2,N
1500405115.6,286047057.0,N
1500405135.4,286047052.9,N
1500405155.3,286047055.4,N
1500405175.1,286047056.8,N
1500405195.8,286047058.7,N
1500405215.7,286047058.0,N
1500405235.5,286047059.7,N
1500405255.3,286047061.4,N
1500405275.2,286047061.2,N
1500405295.9,286047061.1,N
1500405315.7,286047060.8,N
1500405335.6,286047060.6,N
1500405355.4,286047061.8,N
1500405375.2,286047059.2,N
1500405395.0,286047057.3,N
1500405396.0,286047057.3,N
1500405415.8,286047062.0,N
1500405435.6,286047060.0,N
1500405455.4,286047057.5,N
1500405475.3,286047060.2,N
1500405495.1,286047059.4,N
1500405515.8,286047059.1,N
1500405535.7,286047060.7,N
1500405555.5,286047062.7,N
1500405575.3,286047063.1,N
1500405595.2,286047061.5,N
1500405615.0,286047061.1,N
1500405615.9,286047061.1,N
1500405635.7,286047060.5,N
1500405655.6,286047062.4,N
1500405675.4,286047062.7,N
1500405695.2,286047063.0,N
1500405715.1,286047062.5,N
1500405716.0,286047062.5,N
1500405735.8,286047063.6,N
1500405755.6,286047063.3,N
1500405775.5,286047062.6,N
1500405795.3,286047063.0,N
1500405815.1,286047063.7,N
1500405835.9,286047062.5,N
1500405855.7,286047065.0,N
1500405875.5,286047064.6,N
1500405895.4,286047064.9,N
1500405915.2,286047064.6,N
1500405935.0,286047065.0,N
1500405935.9,286047065.0,N
1500405955.8,286047064.2,N
1500405975.6,286047065.5,N
1500405995.4,286047066.6,N
1500406015.3,286047066.8,N
1500406035.1,286047066.3,N
1500406036.0,286047066.3,N
1500406055.8,286047064.2,N
1500406075.6,286047064.8,N
1500406095.5,286047066.2,N
1500406115.3,286047065.4,N
1500406135.1,286047069.6,N
1500406155.9,286047067.8,N
1500406175.7,286047069.9,N
1500406195.5,286047067.5,N
1500406215.4,286047067.2,N
1500406235.2,286047069.5,N
1500406255.0,286047067.5,N
1500406255.9,286047067.5,N
1500406275.8,286047069.7,N
1500406295.6,286047069.6,N
1500406315.4,286047069.7,N
1500406335.3,286047069.7,N
1500406355.1,286047069.5,N
1500406356.0,286047069.5,N
1500406375.8,286047068.5,N
1500406395.7,286047069.0,N
1500406415.5,286047068.6,N
1500406435.3,286047070.4,N
1500406455.2,286047069.0,N
1500406475.9,286047068.6,N
1500406495.7,286047071.3,N
1500406515.6,286047072.2,N
1500406535.4,286047073.5,N
1500406555.2,286047072.2,N
1500406575.0,286047074.8,N
1500406576.0,286047074.8,N
1500406595.8,286047074.5,N
1500406615.6,286047070.2,N
1500406635.4,286047071.9,N
1500406655.3,286047074.5,N
1500406675.1,286047077.9,N
1500406695.8,286047077.6,N
1500406715.7,286047077.8,N
1500406735.5,286047079.5,N
1500406755.3,286047077.5,N
1500406775.2,286047074.9,N
1500406795.9,286047075.7,N
1500406815.7,286047073.3,N
1500406835.6,286047076.0,N
1500406855.4,286047075.6,N
1500406875.2,286047076.1,N
1500406895.1,286047075.5,N
1500406896.0,286047075.5,N
1500406915.8,286047075.0,N
1500406935.6,286047076.7,N
1500406955.5,286047079.6,N
1500406975.3,286047080.7,N
1500406995.1,286047078.7,N
1500407015.9,286047078.7,N
1500407035.7,286047079.6,N
1500407055.5,286047079.4,N
1500407075.3,286047078.3,N
1500407095.2,286047078.1,N
1500407115.0,286047080.7,N
1500407115.9,286047080.7,N
1500407135.8,286047078.6,N
1500407155.6,286047076.5,N
1500407175.4,286047076.6,N
1500407195.2,286047077.4,N
1500407215.1,286047077.8,N
1500407216.0,286047077.8,N
1500407235.8,286047076.7,N
1500407255.6,286047078.6,N
1500407275.5,286047078.4,N
1500407295.3,286047079.3,N
1500407315.1,286047077.0,N
1500407335.9,286047079.0,N
1500407355.7,286047078.8,N
1500407375.5,286047079.1,N
1500407395.4,286047082.3,N
1500407415.2,286047081.3,N
1500407435.0,286047082.3,N
1500407435.9,286047082.3,N
1500407455.8,286047079.8,N
1500407475.6,286047082.3,N
1500407495.4,286047078.5,N
1500407515.3,286047080.7,N
1500407535.1,286047080.8,N
1500407536.0,286047080.8,N
1500407555.8,286047080.4,N
1500407575.7,286047081.0,N
1500407595.5,286047081.7,N
1500407615.3,286047083.7,N
1500407635.2,286047085.7,N
1500407655.9,286047083.1,N
1500407675.7,286047082.3,N
1500407695.6,286047081.6,N
1500407715.4,286047083.0,N
1500407735.2,286047087.5,N
1500407755.0,286047086.7,N
1500407756.0,286047086.7,N
1500407775.8,286047089.1,N
1500407795.6,286047087.1,N
1500407815.4,286047085.4,N
1500407835.3,286047083.0,N
1500407855.1,286047084.7,N
1500407875.8,286047084.7,N
1500407895.7,286047084.7,N
1500407915.5,286047087.3,N
1500407935.3,286047088.9,N
1500407955.2,286047086.1,N
1500407975.9,286047086.7,N
1500407995.7,286047089.0,N
